Regional Weather Roundup
Issued by NWS Lake Charles, LA

Home | Current Version | Previous Version | Text Only | Print | Product List | Glossary On
Versions: 1 2 3 4 5 6 7 8 9 10 11 12 13 14 15 16 17 18 19 20 21 22 23 24 25 26 27 28 29 30 31 32 33 34 35 36 37 38 39 40 41 42 43 44 45 46 47 48 49 50
720
ASUS44 KLCH 280110
RWRLCH
REGIONAL WEATHER ROUNDUP
NATIONAL WEATHER SERVICE LAKE CHARLES LA
800 PM CDT FRI MAY 27 2016

Note: "fair" indicates few or no clouds below 12,000 feet with no
significant weather and/or obstructions to visibility.


ACROSS SOUTHEAST TEXAS

CITY           SKY/WX    TMP DP  RH WIND       PRES   REMARKS
BEAUMONT       TSTM      68  67  96 SE15      29.88R
BEAUMONT CITY  NOT AVBL
ORANGE         RAIN      67  65  93 SE3       29.94R
JASPER         LGT RAIN  65  64  96 E10       29.84F
$$

ACROSS CENTRAL LOUISIANA

CITY           SKY/WX    TMP DP  RH WIND       PRES   REMARKS
LEESVILLE      RAIN      67  66  97 E6        29.92R FOG
FULLERTON      RAIN      67  65  93 CALM      29.92R
ALEXANDRIA INT HVY RAIN  67  66  97 E7        29.93R FOG
ESLER FIELD    HVY RAIN  68  66  93 VRB3      29.95F FOG
DERIDDER       RAIN      67  66  96 CALM      29.95R
OAKDALE        RAIN      67  66  97 NE6       29.95R
OPELOUSAS      CLOUDY    65  64  96 NW15G22   29.96R
$$

ACROSS SOUTHWEST AND SOUTH CENTRAL LOUISIANA

CITY           SKY/WX    TMP DP  RH WIND       PRES   REMARKS
SULPHUR        CLOUDY    69  68  98 E9        29.95R THUNDER
LAKE CHARLES   TSTM      67  66  97 SE8       29.96R
CHENNAULT INT  NOT AVBL
CAMERON PHI    CLOUDY    68  66  94 SE5       29.99R FOG
DEQUINCY       LGT RAIN  66  66 100 NE3       29.89F
JENNINGS       TSTM      66  66 100 NE9       29.95R
LAFAYETTE      CLOUDY    80  68  66 S6        29.92R
NEW IBERIA     CLOUDY    78  68  71 S8        29.92R
ABBEVILLE      CLOUDY    78  71  77 S10       29.93R
PATTERSON      CLOUDY    76  68  76 S6        29.92R
SALT POINT       N/A     78  71  79 VRB6      29.89R
$$

SELECTED SITES ACROSS THE REGION

CITY           SKY/WX    TMP DP  RH WIND       PRES   REMARKS
HOUSTON BUSH   TSTM      65  64  97 SE15      29.78S
HOUSTON HOBBY  TSTM      67  65  93 SE14G21   29.82R FOG
GALVESTON      LGT RAIN  70  68  93 N16       29.84F
COLLEGE STAT   CLOUDY    68  67  96 E5        29.74R
CONROE         CLOUDY    67  65  93 VRB3      29.76F
HUNTSVILLE     CLOUDY    68  65  90 SE3       29.76R
LUFKIN         CLOUDY    67  65  93 SE17G23   29.75F
SHREVEPORT     CLOUDY    69  65  86 S12G22    29.76R
MONROE         LGT RAIN  68  67  96 SE3       29.92R
NATCHEZ MS     CLOUDY    70  64  83 NW14G20   29.97R THUNDER
BATON ROUGE    CLOUDY    80  64  58 S10       29.91R
N.O. INTL ARPT CLOUDY    80  68  66 SE12      29.93R
SLIDELL        CLOUDY    79  68  69 SE8       29.94R
$$

MARINE REPORTS

STATION/POSITION TIME  SKY/WX   TEMP    WIND        PRES    VSBY
                                AIR SEA DIR/SP/G
                 (UTC)          (F)     (DEG/KT/KT) (MB)    (MI)
BUOY 30 S HIGH I 0050            71 81  350/ 23/ 29 1009.8F
WVE H/P(F/S)=  6/ 8

SEA RIM ST PARK  0100            67      80/  7/  9 1012.8R
PORT ARTHUR      0000               79              1011.2F
SABINE PASS N    0000               82              1012.6F
TEXAS POINT      NOT AVBL
CALCASIEU PASS   0000               80              1012.9R
LK CHARLES BEACH 0000               79              1013.4F
MARSH ISLAND     0000            80                   N/A
FRESH WATER LOCK 0000               82              1012.0S
AMERADA PASS     0000               77              1012.2F
$$




USA.gov is the U.S. government's official web portal to all federal, state and local government web resources and services.